Overview Statistics Trail Chart Weather Telemetry Raw packets
 

This is the latest recevied weather packets stored in our database for station/object KG7FOQ-13. If no packets are shown the sender has not sent any weather packets the latest 10 day(s).

<< 5 6 7 8 9 10 11 >>
Time Temp. Humidity Pressure Rain* Wind** Luminosity Snow
1788572924 16.11° C 62% 1013.6 hPa 0 mm - - -
1788572623 16.11° C 62% 1013.7 hPa 0 mm - - -
1788572323 16.11° C 62% 1013.6 hPa 0 mm - - -
1788572019 16.11° C 62% 1013.6 hPa 0 mm - - -
1788571719 16.11° C 62% 1013.5 hPa 0 mm - - -
1788571418 15.56° C 61% 1013.5 hPa 0 mm - - -
1788571118 16.11° C 61% 1013.4 hPa 0 mm - - -
1788570815 16.11° C 59% 1013.4 hPa 0 mm - - -
1788570515 16.11° C 58% 1013.3 hPa 0 mm - - -
1788570214 16.67° C 58% 1013.3 hPa 0 mm - - -
1788569914 17.22° C 57% 1013.3 hPa 0 mm - - -
1788569613 17.22° C 56% 1013.2 hPa 0 mm - - -
1788569313 17.22° C 57% 1013 hPa 0 mm - - -
1788569012 17.78° C 57% 1013 hPa 0 mm - - -
1788568712 17.22° C 55% 1013 hPa 0 mm - - -
1788568411 17.22° C 57% 1012.9 hPa 0 mm - - -
1788568110 17.22° C 57% 1013 hPa 0 mm - - -
1788567809 17.22° C 57% 1013 hPa 0 mm - - -
1788567509 17.22° C 57% 1013.2 hPa 0 mm - - -
1788567208 17.22° C 59% 1013.2 hPa 0 mm - - -
1788566907 17.22° C 59% 1013.2 hPa 0 mm - - -
1788566607 17.22° C 59% 1013.2 hPa 0 mm - - -
1788566006 17.22° C 60% 1012.9 hPa 0 mm - - -
1788565705 17.78° C 60% 1012.9 hPa 0 mm - - -
1788565405 17.78° C 60% 1012.9 hPa 0 mm - - -

* Rain latest hour (hover to see other rain measurements)
** Current wind speed in m/s (hover to see current wind gust speed)